Regional Weather Roundup
Issued by NWS Newport/Morehead, NC

Current Version | Previous Version | Graphics & Text | Print | Product List | Glossary On
Versions: 1 2 3 4 5 6 7 8 9 10 11 12 13 14 15 16 17 18 19 20 21 22 23 24 25 26 27 28 29 30 31 32 33 34 35 36 37 38 39 40 41 42 43 44 45 46 47 48 49 50
000 ASUS42 KMHX 300113 RWRMHX WEATHER ROUNDUP FOR EASTERN NORTH CAROLINA NATIONAL WEATHER SERVICE NEWPORT/MOREHEAD CITY NC 900 PM EDT SAT APR 29 2017 NOTE: "FAIR" INDICATES FEW OR NO CLOUDS BELOW 12,000 FEET WITH NO SIGNIFICANT WEATHER AND/OR OBSTRUCTIONS TO VISIBILITY NCZ015>017-031-032-045>047-102-103-300200- NORTH COAST CITY SKY/WX TMP DP RH WIND PRES REMARKS EDENTON CLEAR 80 73 77 S10 30.17R ELIZABETH CITY CLEAR 79 74 84 S14 30.14R KITTY HAWK CLEAR 75 71 87 SW6 30.14S MANTEO CLEAR 75 71 87 SW15 30.17R $$ NCZ045>047-081-094-103-104-300200- CENTRAL COAST CITY SKY/WX TMP DP RH WIND PRES REMARKS FRISCO CLEAR 75 71 87 SW12G20 30.20R FOG $$ NCZ095-097-098-100-101-300200- SOUTHERN COAST CITY SKY/WX TMP DP RH WIND PRES REMARKS BEAUFORT CLEAR 74 73 97 S12 30.21S CEDAR ISLAND NOT AVBL JACKSONVILLE CLEAR 74 71 91 S8 30.19R PINEY ISLAND CLEAR N/A N/A N/A S10 30.20S WILMINGTON CLEAR 74 70 87 S8 30.20R $$ NCZ011>013-027>030-043-044-078>080-089-090>093-098-300200- COASTAL PLAIN CITY SKY/WX TMP DP RH WIND PRES REMARKS AHOSKIE N/A 75 71 86 S3 30.14R CLINTON CLOUDY 76 72 86 CALM 30.17S ELIZABETHTOWN PTCLDY 77 70 79 S9 30.18R GOLDSBORO CLEAR 79 74 83 S9 30.15R GREENVILLE CLEAR 81 73 78 S12 30.16S HAVELOCK NOT AVBL KENANSVILLE CLEAR 75 70 83 S3 30.18S KINSTON CLEAR 79 68 69 S8 30.17R NEW BERN CLEAR 74 71 91 S9 30.20R RICHLANDS CLEAR 74 70 87 S7 30.20R ROCKY MOUNT CLEAR 75 72 90 CALM 30.14R WASHINGTON CLEAR 77 71 82 S7 30.16S WHITEVILLE PTCLDY 75 70 85 S6 30.18R $$ AMZ130-135-150-152-154-156-158-170-250-252-270-ANZ085-086-088-633-658-670-300200- MARINE OBSERVATIONS STATION/POSITION TIME TEMP WIND PRES WAVE SWELL AIR SEA DIR/SP/G HT/PER HT/PER (UTC) (F) (DEG/KT/KT) (MB) (FT/S) (FT/S) CHESAPEAKE LIGHT NOT AVBL 64 E VA BEACH 0050 65 58 220/ 17/ 21 1020.1 4/ 4 2/ 8 DUCK 0042 78 59 200/ 16/ 21 1020.0 2 E DUCK 0100 61 N/A 2/ 7 OREGON INLET 0042 75 78 210/ 16/ 20 1021.6 13E OREGON INLT 0048 64 N/A 3/ 5 2/ 7 HATTERAS CG 0042 74 75 210/ 10/ 15 1022.2 DIAMOND BUOY 0050 76 76 210/ 16/ 19 1022.7 4/ 4 2/ 7 CAPE LOOKOUT 0000 74 200/ 8/ 11 1022.6 BEAUFORT LAB 0042 74 74 210/ 8/ 12 1022.3 30 SE NEW RVR IN 0008 73 210/ 8/ 12 1023.0 30 SE NEW RVR IN 0043 73 N/A 3/ 7 27 SE WRIGHTSVLE 0008 74 73 190/ 12/ 16 1022.6 5 SE WRIGHTSVLE 0008 73 72 200/ 6/ 12 1022.5 225 S CAPE HAT 2350 75 76 160/ 10/ 10 1024.8 3/ 7 3/ 7 41 SE CHARLESTON 0050 76 76 170/ 10/ 12 1022.0 3/ 7 2/ 7 $$

USA.gov is the U.S. government's official web portal to all federal, state and local government web resources and services.